KRE175 SCDA-SLLP

Flight info

Callsign KRE175
Flight time 0h 48m
Altitude 34000
Route IQQ UV200 ARI UM664 PAZ
Aircraft B722/M-SDFGHRWY/C

Departure

Time 2026-04-27 20:55
Airport Diego Aracena International Airport (SCDA)

Arrival

Time 2026-04-27 21:44
Airport El Alto International Airport (SLLP)
Time Latitude Longitude Altitude Speed Heading
2026-04-27 20:01 -20.54544 -70.17912 178 ft 0 kts 93°
2026-04-27 20:30 -20.54543 -70.17922 178 ft 2 kts 93°
2026-04-27 20:30 -20.54543 -70.17939 178 ft 2 kts 91°
2026-04-27 20:30 -20.54549 -70.17954 178 ft 2 kts 33°
2026-04-27 20:30 -20.54564 -70.17960 178 ft 2 kts 11°
2026-04-27 20:31 -20.54576 -70.17961 178 ft 0 kts
2026-04-27 20:45 -20.54570 -70.17961 178 ft 2 kts
2026-04-27 20:45 -20.54544 -70.17969 178 ft 4 kts 316°
2026-04-27 20:46 -20.54550 -70.17998 178 ft 5 kts 220°
2026-04-27 20:46 -20.54595 -70.18010 178 ft 9 kts 184°
2026-04-27 20:46 -20.54665 -70.18013 178 ft 11 kts 182°
2026-04-27 20:46 -20.54753 -70.18018 178 ft 14 kts 184°
2026-04-27 20:47 -20.54856 -70.18027 178 ft 16 kts 183°
2026-04-27 20:47 -20.54971 -70.18033 178 ft 15 kts 185°
2026-04-27 20:47 -20.55025 -70.18086 178 ft 6 kts 260°
2026-04-27 20:47 -20.55025 -70.18090 178 ft 0 kts 265°
2026-04-27 20:50 -20.55026 -70.18092 178 ft 0 kts 265°
2026-04-27 20:50 -20.55026 -70.18098 178 ft 2 kts 264°
2026-04-27 20:51 -20.55028 -70.18127 177 ft 6 kts 269°
2026-04-27 20:51 -20.55016 -70.18182 177 ft 9 kts 307°
2026-04-27 20:51 -20.54962 -70.18206 178 ft 8 kts 359°
2026-04-27 20:51 -20.54956 -70.18206 178 ft 0 kts
2026-04-27 20:54 -20.54945 -70.18206 178 ft 4 kts
2026-04-27 20:54 -20.54868 -70.18202 179 ft 27 kts
2026-04-27 20:55 -20.54454 -70.18175 180 ft 92 kts
2026-04-27 20:55 -20.53620 -70.18142 177 ft 144 kts 359°
2026-04-27 20:55 -20.52551 -70.18101 452 ft 156 kts 360°
2026-04-27 20:55 -20.51497 -70.18014 989 ft 154 kts
2026-04-27 20:56 -20.50380 -70.18093 1237 ft 169 kts 345°
2026-04-27 20:56 -20.49254 -70.18510 1665 ft 176 kts 330°
2026-04-27 20:56 -20.48152 -70.19219 1995 ft 192 kts 324°
2026-04-27 20:56 -20.47001 -70.20023 2438 ft 207 kts 324°
2026-04-27 20:57 -20.45736 -70.20969 2839 ft 237 kts 323°
2026-04-27 20:57 -20.44367 -70.22005 3726 ft 242 kts 326°
2026-04-27 20:57 -20.42992 -70.23002 4819 ft 238 kts 327°
2026-04-27 20:57 -20.41600 -70.23974 5654 ft 242 kts 328°
2026-04-27 20:58 -20.40163 -70.24948 6326 ft 253 kts 328°
2026-04-27 20:58 -20.38638 -70.25933 7020 ft 260 kts 335°
2026-04-27 20:58 -20.36911 -70.26564 7726 ft 265 kts 344°
2026-04-27 20:58 -20.35111 -70.27065 8477 ft 269 kts 345°
2026-04-27 20:59 -20.33282 -70.27554 9232 ft 273 kts 345°
2026-04-27 20:59 -20.31429 -70.28051 9995 ft 276 kts 345°
2026-04-27 20:59 -20.29522 -70.28600 10384 ft 294 kts 343°
2026-04-27 20:59 -20.27499 -70.29241 10706 ft 313 kts 342°
2026-04-27 21:00 -20.25399 -70.29951 11018 ft 330 kts 341°
2026-04-27 21:00 -20.23166 -70.30740 11337 ft 346 kts 341°
2026-04-27 21:00 -20.20833 -70.31582 11704 ft 361 kts 340°
2026-04-27 21:00 -20.18415 -70.32464 12079 ft 374 kts 340°
2026-04-27 21:01 -20.15917 -70.33380 12451 ft 386 kts 340°
2026-04-27 21:01 -20.13335 -70.34327 12824 ft 398 kts 340°
2026-04-27 21:01 -20.10680 -70.35299 13200 ft 409 kts 340°
2026-04-27 21:01 -20.07977 -70.36287 13750 ft 413 kts 340°
2026-04-27 21:02 -20.05240 -70.37285 14257 ft 418 kts 340°
2026-04-27 21:02 -20.02522 -70.38276 14752 ft 421 kts 340°
2026-04-27 21:02 -19.99738 -70.39290 15257 ft 425 kts 340°
2026-04-27 21:02 -19.96932 -70.40312 15794 ft 427 kts 340°
2026-04-27 21:03 -19.94120 -70.41335 16455 ft 426 kts 340°
2026-04-27 21:03 -19.91320 -70.42353 17216 ft 423 kts 340°
2026-04-27 21:03 -19.88551 -70.43362 17993 ft 419 kts 340°
2026-04-27 21:03 -19.85807 -70.44362 18710 ft 416 kts 339°
2026-04-27 21:04 -19.83089 -70.45352 19408 ft 412 kts 339°
2026-04-27 21:04 -19.80389 -70.46335 20119 ft 408 kts 339°
2026-04-27 21:04 -19.77712 -70.47307 20831 ft 404 kts 339°
2026-04-27 21:04 -19.75098 -70.48256 21568 ft 400 kts 339°
2026-04-27 21:05 -19.72477 -70.49208 22325 ft 396 kts 338°
2026-04-27 21:05 -19.69891 -70.50148 23100 ft 390 kts 338°
2026-04-27 21:05 -19.67338 -70.51075 23844 ft 385 kts 338°
2026-04-27 21:05 -19.64824 -70.51986 24514 ft 378 kts 338°
2026-04-27 21:06 -19.62355 -70.52882 25191 ft 371 kts 338°
2026-04-27 21:06 -19.59938 -70.53758 25887 ft 364 kts 338°
2026-04-27 21:06 -19.57603 -70.54604 26590 ft 355 kts 337°
2026-04-27 21:06 -19.55295 -70.55440 27315 ft 345 kts 337°
2026-04-27 21:07 -19.53055 -70.56251 28055 ft 335 kts 337°
2026-04-27 21:07 -19.50891 -70.57034 28809 ft 322 kts 336°
2026-04-27 21:07 -19.48810 -70.57786 29463 ft 314 kts 336°
2026-04-27 21:08 -19.44573 -70.59333 29736 ft 327 kts 336°
2026-04-27 21:08 -19.42403 -70.60123 29947 ft 332 kts 336°
2026-04-27 21:08 -19.40231 -70.60911 30132 ft 337 kts 336°
2026-04-27 21:08 -19.38002 -70.61719 30297 ft 341 kts 337°
2026-04-27 21:09 -19.35737 -70.62538 30466 ft 346 kts 337°
2026-04-27 21:09 -19.33445 -70.63367 30642 ft 350 kts 337°
2026-04-27 21:09 -19.31123 -70.64206 30806 ft 355 kts 337°
2026-04-27 21:09 -19.28777 -70.65053 30987 ft 359 kts 338°
2026-04-27 21:10 -19.26314 -70.65624 31144 ft 370 kts 355°
2026-04-27 21:10 -19.23730 -70.65325 31357 ft 379 kts
2026-04-27 21:10 -19.21188 -70.64486 31529 ft 387 kts 17°
2026-04-27 21:10 -19.18697 -70.63390 31520 ft 398 kts 19°
2026-04-27 21:11 -19.16117 -70.62222 31470 ft 409 kts 19°
2026-04-27 21:11 -19.10745 -70.59807 31370 ft 430 kts 19°
2026-04-27 21:12 -19.05136 -70.57202 31256 ft 451 kts 23°
2026-04-27 21:12 -18.99396 -70.54218 31126 ft 469 kts 23°
2026-04-27 21:13 -18.93473 -70.51155 31017 ft 485 kts 23°
2026-04-27 21:13 -18.87325 -70.47988 30932 ft 498 kts 23°
2026-04-27 21:14 -18.81048 -70.44763 30977 ft 503 kts 23°
2026-04-27 21:14 -18.74750 -70.41532 31027 ft 504 kts 23°
2026-04-27 21:15 -18.68467 -70.38320 31065 ft 506 kts 23°
2026-04-27 21:15 -18.61882 -70.35859 31109 ft 501 kts 11°
2026-04-27 21:16 -18.55010 -70.34519 31024 ft 504 kts
2026-04-27 21:16 -18.48071 -70.33349 31030 ft 505 kts
2026-04-27 21:17 -18.41083 -70.32744 31031 ft 504 kts
2026-04-27 21:17 -18.34111 -70.32340 31020 ft 506 kts
2026-04-27 21:18 -18.27143 -70.31037 31021 ft 509 kts
2026-04-27 21:18 -18.20369 -70.28885 31012 ft 518 kts 29°
2026-04-27 21:18 -18.17538 -70.26533 31027 ft 522 kts 41°
2026-04-27 21:19 -18.15031 -70.23752 31031 ft 524 kts 47°
2026-04-27 21:19 -18.11261 -70.18758 31032 ft 526 kts 51°
2026-04-27 21:20 -18.04267 -70.08269 31030 ft 528 kts 56°
2026-04-27 21:20 -18.01165 -70.02728 31057 ft 529 kts 58°
2026-04-27 21:21 -17.97397 -69.96088 31075 ft 529 kts 57°
2026-04-27 21:21 -17.93448 -69.89564 31115 ft 529 kts 55°
2026-04-27 21:22 -17.89304 -69.83199 31132 ft 528 kts 53°
2026-04-27 21:22 -17.84958 -69.77005 31143 ft 526 kts 51°
2026-04-27 21:23 -17.80463 -69.71037 31142 ft 523 kts 48°
2026-04-27 21:23 -17.75570 -69.65393 31132 ft 522 kts 44°
2026-04-27 21:24 -17.70512 -69.59933 31117 ft 522 kts 44°
2026-04-27 21:24 -17.65540 -69.54461 31116 ft 522 kts 45°
2026-04-27 21:25 -17.60596 -69.48896 31074 ft 521 kts 45°
2026-04-27 21:25 -17.55655 -69.43339 31050 ft 520 kts 45°
2026-04-27 21:26 -17.50704 -69.37804 31013 ft 520 kts 45°
2026-04-27 21:26 -17.45761 -69.32291 31011 ft 519 kts 45°
2026-04-27 21:27 -17.40857 -69.26818 31013 ft 519 kts 44°
2026-04-27 21:27 -17.35919 -69.21305 30980 ft 519 kts 45°
2026-04-27 21:28 -17.30982 -69.15801 30986 ft 518 kts 45°
2026-04-27 21:28 -17.26047 -69.10300 30937 ft 518 kts 45°
2026-04-27 21:29 -17.21156 -69.04849 30942 ft 517 kts 45°
2026-04-27 21:29 -17.16229 -68.99360 30942 ft 517 kts 45°
2026-04-27 21:30 -17.11315 -68.93889 30915 ft 514 kts 45°
2026-04-27 21:30 -17.08870 -68.91168 30763 ft 513 kts 45°
2026-04-27 21:30 -17.06435 -68.88460 30583 ft 508 kts 45°
2026-04-27 21:31 -17.04028 -68.85780 30374 ft 503 kts 45°
2026-04-27 21:31 -17.01644 -68.83128 30177 ft 498 kts 45°
2026-04-27 21:31 -16.99313 -68.80538 29939 ft 492 kts 45°
2026-04-27 21:31 -16.96983 -68.77947 29559 ft 488 kts 45°
2026-04-27 21:32 -16.94669 -68.75377 29190 ft 483 kts 45°
2026-04-27 21:32 -16.92374 -68.72828 28822 ft 480 kts 45°
2026-04-27 21:32 -16.90095 -68.70299 28476 ft 476 kts 45°
2026-04-27 21:32 -16.87833 -68.67787 28119 ft 473 kts 46°
2026-04-27 21:33 -16.85596 -68.65292 27772 ft 470 kts 46°
2026-04-27 21:33 -16.83371 -68.62806 27440 ft 467 kts 46°
2026-04-27 21:33 -16.81294 -68.60272 27093 ft 465 kts 51°
2026-04-27 21:33 -16.79377 -68.57560 26767 ft 462 kts 54°
2026-04-27 21:34 -16.77540 -68.54820 26450 ft 460 kts 54°
2026-04-27 21:34 -16.75723 -68.52102 26069 ft 453 kts 54°
2026-04-27 21:34 -16.73913 -68.49445 25703 ft 444 kts 54°
2026-04-27 21:34 -16.72104 -68.46866 25326 ft 436 kts 53°
2026-04-27 21:35 -16.70288 -68.44361 24974 ft 429 kts 52°
2026-04-27 21:35 -16.68461 -68.41935 24807 ft 421 kts 51°
2026-04-27 21:35 -16.66618 -68.39605 24518 ft 412 kts 50°
2026-04-27 21:35 -16.64796 -68.37383 24234 ft 405 kts 49°
2026-04-27 21:36 -16.62928 -68.35221 23942 ft 399 kts 47°
2026-04-27 21:36 -16.61015 -68.33158 23584 ft 393 kts 45°
2026-04-27 21:36 -16.59121 -68.31135 23235 ft 386 kts 46°
2026-04-27 21:36 -16.57281 -68.29118 22885 ft 381 kts 46°
2026-04-27 21:37 -16.55459 -68.27134 22529 ft 376 kts 44°
2026-04-27 21:37 -16.53404 -68.25466 22011 ft 375 kts 30°
2026-04-27 21:37 -16.51078 -68.24340 21857 ft 361 kts 15°
2026-04-27 21:37 -16.48648 -68.23960 21566 ft 351 kts 356°
2026-04-27 21:38 -16.46275 -68.24393 21155 ft 345 kts 339°
2026-04-27 21:38 -16.44199 -68.25500 20834 ft 336 kts 320°
2026-04-27 21:38 -16.42658 -68.27288 20302 ft 331 kts 298°
2026-04-27 21:38 -16.41721 -68.29462 19752 ft 330 kts 290°
2026-04-27 21:39 -16.40873 -68.31675 19357 ft 326 kts 289°
2026-04-27 21:39 -16.40121 -68.33884 18878 ft 324 kts 287°
2026-04-27 21:39 -16.39719 -68.36185 18177 ft 325 kts 266°
2026-04-27 21:39 -16.40221 -68.38421 17827 ft 314 kts 243°
2026-04-27 21:40 -16.41608 -68.40144 17226 ft 314 kts 213°
2026-04-27 21:40 -16.43645 -68.40874 16828 ft 309 kts 183°
2026-04-27 21:40 -16.45680 -68.40565 16741 ft 296 kts 162°
2026-04-27 21:40 -16.47442 -68.39538 16542 ft 288 kts 141°
2026-04-27 21:41 -16.48888 -68.38137 16319 ft 281 kts 137°
2026-04-27 21:41 -16.50274 -68.36735 16124 ft 274 kts 137°
2026-04-27 21:41 -16.51258 -68.35027 15489 ft 286 kts 104°
2026-04-27 21:41 -16.51283 -68.32999 15232 ft 275 kts 79°
2026-04-27 21:42 -16.50835 -68.31155 15139 ft 252 kts 84°
2026-04-27 21:42 -16.50882 -68.29451 15055 ft 224 kts 97°
2026-04-27 21:42 -16.51085 -68.27914 14679 ft 210 kts 98°
2026-04-27 21:42 -16.51149 -68.26452 14312 ft 193 kts 90°
2026-04-27 21:43 -16.51138 -68.25131 13966 ft 170 kts 91°
2026-04-27 21:43 -16.51174 -68.23984 13697 ft 152 kts 93°
2026-04-27 21:43 -16.51220 -68.22886 13397 ft 150 kts 93°
2026-04-27 21:43 -16.51247 -68.21796 13253 ft 152 kts 93°
2026-04-27 21:44 -16.51281 -68.20700 13183 ft 142 kts 93°
2026-04-27 21:44 -16.51315 -68.19850 13245 ft 89 kts 92°
2026-04-27 21:44 -16.51330 -68.19384 13279 ft 47 kts 92°
2026-04-27 21:44 -16.51337 -68.19076 13290 ft 38 kts 91°
2026-04-27 21:45 -16.51346 -68.18821 13294 ft 32 kts 91°
2026-04-27 21:45 -16.51352 -68.18600 13299 ft 29 kts 92°
2026-04-27 21:45 -16.51356 -68.18409 13303 ft 24 kts 81°
2026-04-27 21:45 -16.51303 -68.18255 13299 ft 21 kts 63°
2026-04-27 21:46 -16.51228 -68.18138 13318 ft 16 kts 49°
2026-04-27 21:46 -16.51175 -68.18078 13325 ft 8 kts 47°
2026-04-27 21:46 -16.51154 -68.18055 13330 ft 1 kts 47°
2026-04-27 21:46 -16.51154 -68.18054 13330 ft 0 kts 47°
2026-04-27 21:47 -16.51122 -68.18018 13335 ft 10 kts 46°
2026-04-27 21:48 -16.51076 -68.17967 13337 ft 8 kts 47°
2026-04-27 21:48 -16.51043 -68.17931 13338 ft 6 kts 46°
2026-04-27 21:48 -16.51015 -68.17923 13339 ft 4 kts 331°
2026-04-27 21:48 -16.50998 -68.17959 13339 ft 8 kts 271°
2026-04-27 21:49 -16.50989 -68.18001 13338 ft 3 kts 332°
2026-04-27 21:49 -16.50963 -68.18011 13339 ft 5 kts 350°
2026-04-27 21:49 -16.50948 -68.18012 13339 ft 0 kts 358°